Vorticity
7 7 7 7 6 6 5 6 6 6 6 6 6 6 7 6 7 8 7 8 9 10 10 10 9 9 8 7 7 6 6 5 6 6 4 4 3 4 6 8 7 6 8 5 6 5 4 3 4 10 2 4 9 -13 -19 1 12 8 8 9 -0 5 7 4 9 6 8 8 8 10 8 5 -1 3 9 5 6 1 4 14 4 1 10 11 10 15 16 10
8 7 7 7 7 6 5 5 5 6 7 6 6 6 7 6 6 8 7 7 8 9 9 10 10 10 9 8 7 7 6 6 7 5 5 5 4 5 6 8 7 6 6 5 6 5 7 6 7 8 0 6 2 -7 2 5 20 19 5 10 5 4 6 6 11 8 10 11 3 4 7 7 4 3 1 3 9 7 4 7 10 7 9 13 9 9 10 7
8 9 8 7 7 6 5 6 5 6 7 7 6 5 7 6 6 7 8 7 7 8 8 9 10 10 10 8 8 7 6 7 7 5 6 5 5 5 6 9 7 6 7 6 6 5 11 11 9 7 21 36 -5 -14 16 -6 -0 17 -0 2 2 2 5 5 9 7 9 9 4 2 7 8 12 15 8 8 11 11 13 7 9 13 7 7 9 8 6 5
5 6 8 9 9 8 7 6 6 7 7 7 7 6 6 6 6 6 7 7 7 7 7 8 9 10 10 9 9 7 7 8 7 6 7 6 5 5 6 9 7 7 8 5 7 7 8 8 9 -0 9 47 16 -20 2 -0 8 14 1 7 5 5 7 5 9 11 10 8 9 8 9 9 10 16 10 6 7 5 10 10 7 9 8 6 8 11 8 4
4 4 5 6 7 9 9 9 8 7 7 8 7 7 6 5 6 6 7 7 7 7 6 7 8 10 10 10 9 7 8 8 8 7 7 6 4 5 6 9 7 7 7 6 7 4 8 10 6 -10 -25 10 22 -4 6 10 9 6 0 7 4 8 9 7 10 10 11 11 14 10 6 8 4 10 13 7 10 10 8 9 10 9 11 8 3 9 10 8
4 4 4 4 5 6 8 10 10 8 7 8 8 8 6 6 6 5 6 6 7 7 6 7 6 9 9 10 9 8 9 8 10 8 7 7 4 6 6 9 8 6 9 6 6 5 9 8 5 6 -10 3 12 -7 9 13 3 3 0 5 5 9 9 8 12 10 12 10 10 11 9 14 7 5 14 13 8 11 11 9 12 9 9 7 3 12 15 11
3 3 4 4 5 4 5 7 10 11 9 7 7 8 8 7 6 6 6 6 7 6 6 7 6 8 9 10 9 8 9 6 9 8 6 7 4 6 5 9 7 5 10 4 8 6 3 7 10 7 -16 4 21 -6 11 26 7 -8 -15 2 7 6 10 9 12 11 11 11 13 15 11 12 11 3 2 11 16 14 15 12 8 3 5 10 8 12 14 11
4 3 3 3 5 5 5 5 7 9 11 10 8 8 8 7 7 6 6 6 6 6 7 6 6 7 8 10 8 8 11 8 8 7 5 6 4 6 5 9 7 5 9 4 9 3 4 7 -4 2 -5 10 25 -5 5 16 -0 -3 -4 5 7 7 11 6 8 11 8 8 12 12 10 7 10 13 -2 2 26 21 11 13 13 10 8 12 11 9 9 9
4 5 5 4 4 3 4 5 5 7 9 11 10 9 9 8 8 7 7 6 5 6 6 6 7 7 7 9 7 8 13 10 9 7 6 6 5 6 6 8 7 7 8 5 9 3 7 2 -11 16 14 6 15 -1 8 16 9 18 13 9 9 7 6 3 4 10 11 7 10 11 14 12 8 18 4 -7 18 21 13 19 20 18 13 12 13 9 8 8
4 5 7 7 8 5 4 4 5 6 6 10 11 11 9 8 8 7 7 6 6 6 6 7 7 6 8 6 7 10 10 10 11 7 7 7 6 6 6 8 6 6 9 6 8 6 5 4 11 20 -8 -10 14 2 -3 5 9 11 4 10 15 8 7 9 4 6 13 10 16 20 15 13 6 13 9 -9 3 9 9 20 20 19 18 16 17 13 12 11
4 5 7 8 10 9 7 5 5 6 6 8 9 11 11 9 8 7 8 6 6 6 5 7 7 7 7 5 8 11 8 8 10 8 8 7 6 7 6 7 7 5 8 7 6 8 5 3 11 6 -6 8 14 5 -1 -3 14 14 3 13 14 10 11 9 3 3 10 6 13 20 11 12 9 10 10 -1 8 14 5 8 12 13 18 17 18 21 19 18
4 4 4 6 9 10 11 9 6 5 5 7 8 10 11 10 10 8 8 7 6 6 5 6 7 8 6 5 8 7 6 9 8 8 9 7 7 7 8 7 7 6 7 8 6 6 5 4 7 3 13 13 -11 7 19 1 10 1 -6 23 24 14 10 8 6 5 9 0 3 15 10 9 9 9 12 1 3 13 5 2 6 4 12 16 15 20 24 23
4 4 3 4 6 9 12 12 9 6 6 7 7 9 11 11 11 9 8 8 6 6 5 5 6 8 7 7 8 5 6 9 8 8 7 8 8 6 8 8 6 7 6 7 7 7 5 4 7 6 13 4 -15 10 22 12 17 -6 -14 10 16 11 -2 -0 12 7 7 -1 -0 17 14 9 9 9 12 1 -4 10 10 6 8 3 6 13 12 15 20 22
5 4 4 4 5 7 10 13 13 9 7 7 7 8 9 11 11 10 9 7 7 6 5 5 5 7 8 8 7 6 6 7 8 10 9 8 8 7 8 9 7 6 6 6 4 5 6 4 7 5 6 3 -3 13 17 15 11 -8 -12 -16 -4 20 -15 -21 18 11 -0 2 5 15 13 8 8 7 10 5 1 12 15 7 7 8 6 7 10 12 13 17
6 6 5 4 5 7 9 12 15 13 10 7 8 7 8 11 11 11 10 9 8 6 5 5 5 5 7 8 5 4 6 6 7 9 10 9 9 8 7 9 8 6 6 6 4 5 6 5 6 4 8 6 -1 2 2 6 -4 -14 3 -9 -3 27 -22 -38 15 15 3 11 9 12 13 10 8 9 11 11 6 2 7 9 5 7 8 5 5 8 8 11
6 6 6 5 5 7 9 12 15 15 12 9 9 8 7 9 11 12 10 10 8 7 7 5 6 5 4 11 12 10 7 6 7 7 10 11 10 8 8 10 9 7 7 6 6 7 7 6 5 2 9 9 -1 -3 -12 -1 12 1 8 -1 -1 20 -16 -28 8 12 17 17 6 11 10 6 9 8 3 7 10 2 3 8 6 6 9 7 5 6 8 8
7 6 6 6 6 8 9 11 15 16 13 10 10 8 8 8 10 12 11 10 9 8 7 4 6 6 3 6 8 8 6 7 8 7 8 9 10 10 10 10 9 7 5 6 6 5 5 6 7 2 1 2 7 21 12 8 24 13 9 11 11 13 -10 -6 9 4 22 20 8 16 6 1 9 5 1 5 8 6 6 7 8 9 7 8 5 6 10 7
7 7 7 7 7 8 9 12 14 16 13 9 10 9 9 8 8 10 11 12 10 8 8 6 5 5 2 -2 -1 5 8 10 7 5 8 8 10 12 10 9 9 7 3 6 6 5 7 6 7 5 4 2 -9 1 9 12 15 -6 -6 8 13 26 21 15 5 -5 17 18 5 11 5 5 10 5 5 9 8 5 6 6 9 10 7 9 6 6 10 8
8 8 8 7 7 8 10 12 13 15 13 9 10 9 8 8 7 9 11 11 10 10 10 9 6 4 4 1 1 6 10 14 9 6 10 8 8 9 7 8 6 7 5 5 4 4 8 6 6 4 6 10 0 -5 -14 -6 13 -2 3 14 0 14 12 -12 -12 -2 15 20 13 11 7 5 8 8 4 4 9 6 5 5 6 10 9 9 6 7 10 6
8 8 9 8 8 9 10 12 13 14 13 10 9 9 9 9 8 8 10 9 10 11 8 6 7 5 6 6 2 4 13 18 10 6 8 8 9 7 7 10 7 7 5 5 6 6 7 5 8 7 2 5 23 33 -8 -27 3 2 11 24 -2 -5 -7 -18 1 7 7 20 16 3 6 6 5 9 -0 -0 12 4 2 6 4 7 8 7 4 6 9 6
9 9 9 9 9 10 11 12 12 13 13 11 9 9 9 8 9 9 9 10 9 11 9 6 9 8 7 7 6 10 13 10 5 8 8 6 8 8 8 8 6 7 5 7 7 4 7 4 5 9 -1 -20 -15 12 2 -10 9 2 2 15 1 -1 0 -3 4 -4 -4 17 15 2 6 7 4 7 -3 3 20 7 0 8 6 7 8 8 5 3 6 7
10 9 9 10 9 10 11 11 12 13 12 10 8 9 10 9 9 8 8 10 8 9 10 8 9 8 7 7 8 10 6 1 7 15 11 7 8 8 9 6 5 7 6 9 5 2 9 9 9 10 8 -3 -19 -10 3 6 12 4 1 3 -3 2 0 -1 13 20 14 11 12 6 -1 -1 2 7 3 6 15 6 3 7 5 8 8 6 5 5 4 5
10 10 11 11 10 11 12 11 11 12 11 10 9 10 10 9 9 9 9 8 8 9 9 10 10 8 10 10 7 6 4 3 10 14 11 11 9 6 8 6 6 7 6 7 5 3 5 -2 -11 -11 11 29 10 -1 11 21 23 14 6 3 4 16 15 7 15 29 23 9 8 2 -2 9 10 9 8 5 6 4 6 7 3 6 8 6 5 5 5 4
11 11 12 11 11 12 11 11 10 10 11 10 10 11 11 10 9 9 9 8 9 10 8 9 9 9 11 9 7 9 11 10 8 8 12 13 7 5 10 8 6 7 6 7 5 7 10 -4 -22 -18 19 40 15 1 14 24 21 8 5 5 1 1 -1 -8 -8 1 8 7 6 6 13 18 11 12 12 2 5 8 4 5 6 6 6 8 7 5 6 5
11 12 13 12 12 12 11 10 9 9 10 10 12 13 12 11 10 10 10 10 10 8 9 11 9 9 9 8 13 14 12 14 11 8 12 10 4 7 10 6 6 7 5 6 2 6 17 13 5 6 17 24 14 8 10 9 6 5 7 7 8 6 0 7 17 15 10 5 2 7 17 18 9 12 12 2 4 8 6 5 6 7 7 8 8 6 6 5
12 13 14 13 12 12 11 9 9 8 10 12 13 14 14 13 12 12 11 10 10 10 9 9 10 12 11 10 10 8 7 11 12 12 14 9 5 9 8 5 9 8 2 4 5 5 6 2 8 10 -3 -3 9 12 10 5 3 8 6 2 13 17 12 18 20 13 9 8 8 4 12 25 18 11 10 6 2 3 7 7 5 8 7 7 8 7 7 6
13 13 14 13 12 12 10 8 8 7 9 13 13 14 15 13 12 13 14 12 13 17 14 10 9 11 13 10 8 11 12 11 9 10 13 11 7 9 6 3 9 6 -6 -2 10 12 2 -9 -3 11 9 2 4 4 1 3 6 7 4 1 2 1 10 20 6 -2 6 10 13 5 8 22 12 7 14 7 3 3 4 5 6 9 7 6 7 7 7 5
12 13 14 13 12 12 10 8 7 8 10 12 13 15 14 13 14 13 12 8 5 9 15 18 14 8 8 10 12 13 10 11 11 9 18 18 8 10 10 1 3 7 -4 -6 8 17 14 5 -5 5 22 16 11 15 5 -1 7 10 10 15 14 5 8 14 2 -3 1 6 9 -3 9 27 5 -1 13 5 2 5 6 9 6 6 8 5 6 7 7 6
11 13 13 13 13 12 9 8 7 8 10 11 13 15 14 14 13 10 11 10 5 4 5 11 13 11 11 9 10 9 4 14 16 9 22 24 9 13 16 2 2 8 1 -3 5 10 11 14 1 -1 18 18 15 26 18 5 5 8 7 3 7 11 10 12 11 10 7 8 12 2 11 26 2 -6 11 10 7 3 5 13 6 5 9 5 6 7 5 6
11 13 14 14 13 12 10 8 8 8 10 13 14 14 14 13 12 12 12 9 9 9 5 4 7 12 15 12 11 10 7 14 12 1 8 13 9 15 11 0 4 6 3 6 12 5 -3 4 9 6 7 2 -5 -2 2 7 6 10 14 3 -3 5 13 15 8 8 8 1 11 15 10 15 5 -1 6 7 9 4 3 12 7 4 8 5 7 6 3 6
12 13 14 15 13 12 9 5 7 8 10 14 15 14 14 12 11 11 5 3 7 11 11 8 7 11 13 11 10 11 11 10 5 4 8 10 12 18 14 3 0 3 9 12 8 4 -3 -6 12 23 2 -12 -2 1 3 16 9 -2 6 12 10 5 4 7 -1 2 8 0 12 15 2 13 12 -7 -3 6 7 6 6 11 7 6 9 5 6 5 3 5
12 12 13 15 14 12 9 5 7 9 12 15 14 14 13 9 13 13 8 12 11 12 21 15 8 12 11 10 11 9 12 8 4 9 11 13 13 15 20 15 2 2 13 14 4 3 -0 -18 -4 31 18 -2 13 9 -4 15 19 -2 -6 -1 5 5 1 5 3 7 14 7 8 6 1 19 10 -18 -12 4 8 9 8 9 9 10 9 3 4 7 4 4
12 11 12 14 14 12 9 6 6 8 13 14 13 13 12 10 13 8 6 15 11 9 22 19 13 14 8 10 13 8 12 11 10 15 9 9 13 10 16 17 10 8 9 15 15 9 8 -10 -17 14 23 6 13 8 -11 3 19 15 9 2 4 11 8 10 7 3 8 -1 -7 11 27 30 21 6 -2 -1 7 13 10 8 10 10 5 2 5 7 4 4
10 10 11 12 14 12 7 5 6 10 13 13 13 12 11 11 12 11 7 6 7 7 7 7 15 18 11 14 15 11 20 13 3 15 16 9 9 8 13 14 16 18 5 4 14 8 8 4 -12 5 26 8 2 20 16 0 3 15 18 8 5 5 0 7 9 -1 -2 -6 -5 19 26 19 25 22 3 -2 8 13 12 11 10 9 6 4 6 5 4 5
10 9 10 11 15 11 6 5 4 10 13 13 13 11 12 10 5 13 9 -6 3 14 8 3 11 16 13 19 17 5 19 18 -4 7 23 15 10 10 12 13 15 21 6 -5 8 8 7 17 6 4 22 11 -4 17 26 5 -2 7 10 10 7 3 2 8 10 8 6 3 6 8 -1 8 25 11 -5 2 9 12 14 11 10 12 7 4 6 4 4 6
10 9 8 10 14 11 6 5 5 11 13 12 13 11 14 11 3 10 7 -0 13 18 14 14 14 18 15 16 18 4 10 20 -2 1 19 16 17 16 11 16 16 15 9 -3 3 8 1 14 21 3 2 10 5 5 17 22 17 1 -5 7 12 5 4 3 -2 2 6 6 10 4 -0 14 15 -1 5 15 9 10 14 8 9 11 5 4 7 4 4 7
10 9 8 9 12 10 6 4 6 11 13 13 14 11 6 5 12 16 3 4 11 1 9 19 9 16 13 5 15 7 5 17 1 4 20 11 13 17 11 19 17 16 17 1 -0 6 -14 -11 23 25 13 17 7 -11 -4 11 12 10 9 8 12 15 11 7 6 6 6 7 6 1 5 14 7 4 23 27 11 6 14 15 9 8 8 6 6 6 4 6
10 8 8 9 11 10 5 5 6 10 15 14 13 13 6 1 11 16 3 4 3 -4 16 21 2 16 15 -0 16 14 6 18 6 6 21 10 11 21 16 18 18 19 21 0 -1 13 -3 -2 30 27 2 -1 -2 -3 11 12 -0 16 26 -1 -5 17 15 5 11 12 9 12 14 11 6 6 9 10 14 19 9 -5 8 21 13 9 12 6 6 9 5 4
11 8 8 9 11 10 6 5 7 10 15 15 13 13 10 4 7 12 9 4 -2 2 23 15 -5 16 18 -2 13 15 6 18 11 7 21 14 12 21 19 19 17 19 22 3 -2 13 5 3 23 19 2 3 8 11 21 18 1 1 6 -2 3 18 11 1 6 8 11 15 12 10 2 -3 12 19 6 5 9 6 16 23 12 8 10 9 10 8 5 6
12 10 10 10 10 10 7 4 6 11 15 15 16 9 2 2 6 13 16 8 1 5 19 13 -8 7 23 7 4 8 4 12 10 8 20 14 10 19 22 22 16 16 26 9 -6 10 4 -13 -4 9 15 16 9 11 16 13 10 1 -7 3 18 16 6 2 3 -0 4 12 4 -1 2 -1 6 15 6 4 14 23 25 16 11 12 8 9 11 5 7 9
12 11 13 11 8 7 6 5 8 14 14 13 14 7 2 5 5 12 17 13 10 3 10 24 7 1 21 11 -1 8 9 10 8 6 12 4 -4 6 17 24 17 10 24 14 -7 3 3 -8 -2 4 17 18 -5 7 28 10 -0 7 5 4 7 12 16 10 8 2 -3 7 9 7 16 12 3 7 8 7 11 17 17 8 10 16 6 5 8 5 10 9
11 12 15 12 10 7 4 6 10 12 12 13 12 3 5 13 10 12 13 9 11 4 8 27 12 -1 19 11 1 13 10 9 11 3 5 2 -7 1 16 28 17 -2 17 26 1 -13 -13 -1 15 8 14 14 -14 -0 28 4 -5 14 13 4 -2 1 10 6 9 13 5 5 7 5 13 13 7 9 12 13 14 16 16 5 4 12 7 5 10 7 8 8
10 14 17 13 11 8 4 7 11 13 15 15 8 -2 4 15 11 10 13 13 14 9 12 25 14 8 22 9 1 15 9 8 15 3 2 7 5 8 13 24 22 -3 4 30 14 -15 -18 0 14 11 15 8 -5 21 31 -3 2 16 -1 1 11 5 5 7 10 13 5 3 6 4 7 4 -4 -4 3 12 16 15 14 4 5 12 7 6 11 7 5 7
10 13 16 14 12 11 9 10 10 11 16 14 5 1 8 11 3 1 8 12 10 4 11 27 23 18 20 2 -0 20 14 7 17 16 11 11 13 13 -1 9 40 26 0 15 23 1 -13 -14 -13 -2 16 8 -2 22 25 -3 4 14 -3 2 11 5 4 3 1 10 7 0 4 8 7 6 6 7 9 11 9 12 12 4 6 9 6 11 12 2 4 9
11 11 14 15 12 10 9 11 9 3 7 10 3 4 12 10 4 0 2 9 8 2 9 23 19 12 12 -2 -5 17 20 7 14 20 10 0 6 14 -2 -6 29 35 5 4 19 15 2 -9 -15 -10 3 8 -2 -2 8 8 6 7 9 7 2 7 16 1 -11 6 10 -3 2 13 8 4 7 11 15 12 5 12 15 4 3 7 9 13 8 1 7 9
10 10 16 17 14 13 9 9 10 4 7 11 5 6 9 7 11 9 4 10 11 2 4 12 7 5 13 5 -3 12 17 5 7 14 8 -3 -2 9 10 7 12 7 5 16 16 12 12 7 5 5 1 8 10 2 7 13 5 3 9 9 7 13 19 10 3 12 14 4 5 9 5 5 8 12 21 17 5 7 13 6 4 7 8 9 6 4 8 8
7 7 15 15 13 14 8 5 8 9 14 12 6 12 11 4 12 15 7 6 9 8 7 6 7 14 19 11 5 14 14 5 5 9 11 10 6 2 2 20 33 11 4 21 6 -5 13 14 7 12 12 12 10 4 9 13 12 10 -1 -2 14 16 7 8 8 6 6 8 7 2 2 10 12 11 15 13 3 4 10 8 5 6 7 6 7 7 6 5
6 9 12 13 18 17 6 3 6 9 11 6 1 6 11 10 9 8 5 3 6 10 8 7 10 16 13 2 5 15 11 7 5 1 11 16 10 8 -1 9 44 37 11 9 -5 -11 10 12 4 7 13 23 18 1 0 9 19 12 -15 -16 8 9 5 11 13 14 16 14 12 13 16 14 7 4 7 8 5 2 5 8 7 8 7 5 7 9 6 4
5 10 9 9 17 20 13 7 8 8 4 8 19 15 6 7 5 5 9 8 10 10 8 16 13 4 8 7 14 23 9 4 7 -1 11 12 -6 9 26 25 41 39 14 4 -2 -5 -7 -13 2 14 2 11 23 8 -1 12 25 12 -16 -6 14 4 1 7 4 9 14 11 11 12 11 8 6 12 13 9 8 3 1 7 9 8 8 6 7 7 5 4
6 9 9 4 6 14 17 9 8 13 -4 -5 25 30 11 3 4 8 4 0 15 10 -1 22 21 -0 8 8 8 26 13 2 8 -2 8 15 -11 -4 24 26 30 27 17 13 3 -2 -9 -25 -4 16 -4 -4 12 10 8 16 24 15 -5 1 14 7 6 10 3 1 3 6 9 5 2 2 3 11 10 6 11 7 3 7 8 7 7 5 7 6 4 4
8 8 10 9 6 9 14 8 9 18 2 -4 20 25 10 5 4 6 -6 -6 28 15 -18 15 29 2 9 7 -3 18 24 14 5 -9 8 18 -6 4 26 17 15 16 20 27 9 1 12 1 -2 8 2 7 11 5 12 16 14 16 6 -0 7 13 16 14 8 10 10 7 4 -0 6 9 2 1 2 3 7 7 6 8 7 7 8 5 7 7 3 2
8 9 8 10 10 8 11 12 11 7 -5 4 27 19 8 14 13 12 0 -3 27 18 -15 12 29 -0 4 12 -5 -2 17 25 7 -7 20 16 -20 0 24 7 9 15 20 33 13 -5 12 13 7 10 6 9 8 5 17 16 3 5 6 3 9 13 15 11 3 5 12 15 11 2 2 7 5 3 3 4 8 10 11 10 5 7 9 6 6 6 3 2
Height
5921 5920 5920 5919 5919 5919 5918 5918 5917 5917 5916 5916 5915 5915 5914 5914 5913 5913 5912 5912 5911 5911 5911 5911 5911 5911 5911 5911 5911 5911 5911 5911 5911 5911 5911 5911 5911 5911 5911 5911 5911 5910 5910 5910 5909 5909 5909 5908 5908 5908 5908 5908 5908 5908 5909 5910 5909 5908 5909 5908 5906 5905 5905 5905 5904 5903 5902 5901 5900 5897 5895 5897 5897 5896 5897 5897 5897 5898 5897 5898 5898 5898 5899 5900 5900 5901 5901 5902
5920 5920 5919 5919 5919 5918 5918 5917 5917 5916 5916 5915 5915 5914 5914 5913 5913 5912 5912 5912 5911 5911 5910 5910 5910 5910 5910 5910 5911 5911 5911 5911 5911 5911 5911 5911 5911 5911 5911 5911 5911 5911 5911 5911 5910 5910 5909 5909 5909 5909 5908 5908 5909 5911 5912 5912 5911 5911 5911 5908 5905 5906 5907 5907 5905 5904 5902 5900 5900 5899 5897 5896 5896 5896 5897 5897 5898 5898 5897 5897 5897 5897 5898 5899 5900 5901 5902 5903
5919 5919 5918 5918 5918 5917 5917 5917 5916 5916 5915 5915 5914 5914 5913 5913 5912 5912 5912 5911 5911 5910 5910 5910 5910 5910 5910 5910 5910 5910 5910 5911 5911 5911 5911 5911 5911 5911 5911 5911 5911 5911 5911 5911 5911 5911 5910 5910 5910 5909 5909 5909 5911 5916 5916 5914 5916 5915 5910 5907 5906 5907 5907 5906 5905 5904 5903 5901 5899 5899 5898 5897 5896 5896 5896 5895 5896 5898 5897 5897 5896 5896 5897 5898 5899 5900 5901 5901
5919 5918 5918 5917 5917 5917 5916 5916 5915 5915 5914 5914 5914 5913 5913 5912 5912 5912 5911 5911 5911 5910 5910 5909 5909 5909 5909 5909 5909 5910 5910 5910 5910 5911 5911 5911 5911 5911 5911 5911 5911 5911 5912 5912 5912 5911 5911 5911 5910 5910 5911 5911 5914 5920 5920 5917 5918 5916 5909 5907 5908 5908 5908 5906 5905 5904 5902 5901 5900 5900 5899 5897 5897 5897 5897 5895 5896 5898 5898 5897 5896 5895 5896 5897 5899 5900 5900 5901
5918 5917 5917 5916 5916 5916 5915 5915 5914 5914 5913 5913 5913 5913 5912 5912 5911 5911 5911 5910 5910 5910 5909 5909 5909 5908 5908 5908 5909 5909 5909 5910 5910 5910 5911 5911 5911 5911 5911 5911 5911 5912 5912 5912 5912 5912 5911 5911 5911 5911 5911 5914 5919 5922 5922 5919 5918 5913 5908 5909 5910 5910 5909 5907 5906 5905 5903 5901 5901 5900 5899 5898 5898 5898 5898 5897 5897 5898 5898 5898 5897 5896 5896 5897 5899 5900 5900 5901
5917 5916 5916 5915 5915 5914 5914 5914 5913 5913 5913 5912 5912 5912 5911 5911 5911 5910 5910 5910 5910 5909 5909 5908 5908 5908 5908 5908 5908 5908 5909 5909 5909 5910 5910 5910 5910 5911 5911 5911 5911 5912 5912 5912 5912 5912 5912 5911 5912 5911 5912 5918 5923 5923 5921 5918 5917 5913 5910 5911 5912 5911 5909 5907 5907 5906 5904 5903 5902 5901 5899 5898 5897 5896 5898 5898 5897 5896 5896 5897 5898 5898 5897 5898 5899 5899 5899 5900
5916 5915 5915 5914 5914 5913 5913 5913 5912 5912 5911 5911 5911 5910 5910 5910 5910 5910 5909 5909 5909 5909 5909 5908 5908 5908 5907 5907 5907 5908 5908 5909 5909 5909 5910 5910 5910 5910 5911 5911 5912 5912 5912 5913 5913 5913 5912 5912 5912 5911 5914 5921 5924 5923 5919 5915 5915 5913 5911 5912 5912 5911 5910 5908 5907 5907 5906 5904 5903 5902 5901 5899 5898 5897 5898 5899 5897 5896 5895 5896 5897 5898 5898 5898 5898 5898 5898 5899
5914 5914 5914 5913 5912 5912 5912 5911 5911 5911 5910 5910 5910 5909 5909 5909 5909 5909 5908 5908 5908 5908 5908 5908 5907 5907 5907 5907 5907 5907 5907 5908 5908 5909 5909 5910 5910 5910 5910 5911 5912 5912 5913 5913 5913 5913 5913 5912 5912 5912 5915 5919 5922 5923 5919 5913 5914 5912 5910 5912 5912 5911 5910 5908 5908 5908 5908 5906 5904 5903 5901 5900 5899 5898 5898 5899 5896 5894 5893 5894 5896 5897 5897 5897 5897 5897 5897 5897
5913 5913 5913 5912 5911 5911 5910 5910 5910 5909 5909 5909 5908 5908 5908 5908 5908 5908 5908 5907 5907 5907 5907 5907 5907 5907 5907 5906 5906 5906 5907 5907 5908 5908 5909 5909 5909 5910 5910 5911 5911 5912 5913 5913 5913 5913 5913 5911 5912 5914 5915 5917 5920 5922 5919 5914 5914 5913 5910 5912 5914 5911 5910 5909 5910 5909 5908 5907 5906 5904 5902 5900 5899 5898 5898 5898 5896 5894 5893 5893 5894 5894 5895 5896 5896 5895 5895 5895
5911 5911 5911 5910 5910 5909 5909 5909 5908 5908 5908 5907 5907 5907 5906 5906 5906 5907 5907 5906 5906 5906 5906 5906 5906 5906 5906 5906 5906 5906 5906 5907 5907 5907 5908 5908 5909 5910 5910 5911 5911 5912 5912 5913 5913 5913 5913 5912 5912 5914 5914 5916 5919 5920 5919 5915 5914 5913 5912 5913 5914 5912 5911 5910 5911 5910 5908 5907 5907 5906 5903 5900 5900 5899 5898 5898 5896 5895 5895 5894 5894 5893 5893 5894 5894 5894 5893 5894
5909 5909 5909 5909 5908 5907 5907 5907 5907 5906 5906 5906 5905 5905 5905 5905 5905 5905 5905 5905 5905 5905 5905 5905 5905 5905 5905 5905 5905 5906 5906 5906 5907 5907 5908 5908 5909 5909 5910 5910 5911 5912 5912 5913 5913 5913 5913 5912 5912 5913 5912 5915 5919 5920 5918 5915 5913 5912 5912 5912 5913 5913 5912 5911 5911 5911 5909 5908 5908 5907 5904 5901 5901 5900 5899 5899 5898 5897 5896 5895 5894 5894 5894 5893 5893 5893 5892 5892
5907 5907 5906 5906 5906 5905 5905 5905 5905 5905 5904 5904 5904 5904 5903 5903 5903 5904 5904 5904 5904 5904 5904 5904 5904 5905 5905 5905 5905 5905 5905 5906 5906 5907 5907 5908 5908 5909 5909 5910 5910 5911 5912 5912 5912 5912 5913 5912 5912 5913 5913 5913 5916 5920 5918 5915 5914 5912 5911 5913 5913 5913 5912 5910 5910 5912 5911 5909 5909 5908 5906 5903 5902 5902 5901 5901 5902 5900 5897 5896 5895 5895 5895 5894 5893 5892 5892 5892
5905 5905 5904 5904 5904 5903 5903 5903 5902 5902 5903 5902 5902 5902 5902 5902 5902 5902 5902 5902 5903 5903 5903 5903 5903 5904 5904 5904 5904 5904 5904 5905 5905 5906 5907 5907 5908 5908 5909 5909 5910 5911 5911 5912 5912 5912 5912 5912 5913 5913 5914 5913 5914 5917 5916 5916 5918 5914 5912 5912 5913 5914 5912 5909 5910 5912 5913 5910 5909 5909 5907 5904 5902 5903 5903 5902 5903 5902 5899 5897 5897 5896 5896 5895 5894 5893 5893 5893
5903 5902 5902 5901 5901 5901 5900 5900 5900 5900 5900 5900 5900 5900 5900 5900 5900 5900 5901 5901 5901 5901 5902 5902 5902 5903 5903 5903 5903 5903 5904 5904 5904 5905 5906 5907 5907 5908 5908 5909 5910 5910 5911 5911 5911 5912 5912 5912 5913 5913 5914 5913 5913 5915 5915 5916 5918 5917 5915 5914 5913 5913 5912 5911 5911 5913 5914 5911 5909 5910 5908 5905 5903 5904 5905 5903 5903 5903 5899 5898 5898 5898 5897 5896 5896 5894 5894 5893
5901 5900 5899 5899 5899 5898 5898 5898 5898 5898 5898 5898 5898 5898 5898 5898 5898 5898 5899 5899 5899 5900 5900 5900 5901 5902 5902 5902 5902 5902 5903 5903 5904 5904 5905 5906 5907 5907 5908 5908 5909 5910 5910 5911 5911 5911 5912 5912 5912 5913 5913 5913 5914 5915 5916 5918 5920 5920 5919 5919 5917 5913 5910 5911 5912 5913 5913 5912 5911 5910 5908 5906 5903 5904 5905 5903 5903 5903 5901 5899 5899 5899 5898 5897 5897 5896 5895 5894
5898 5897 5897 5896 5896 5896 5896 5895 5895 5895 5896 5896 5896 5896 5896 5896 5896 5897 5897 5897 5897 5898 5898 5899 5900 5900 5901 5902 5901 5901 5902 5902 5903 5904 5904 5905 5906 5906 5907 5908 5908 5909 5910 5910 5911 5911 5911 5912 5912 5913 5914 5914 5914 5916 5918 5920 5924 5925 5923 5924 5923 5915 5909 5910 5913 5915 5914 5912 5912 5910 5908 5907 5904 5904 5905 5905 5904 5903 5902 5900 5899 5899 5899 5898 5898 5897 5896 5895
5896 5895 5894 5894 5893 5893 5893 5893 5893 5893 5893 5893 5894 5894 5894 5894 5894 5895 5895 5895 5895 5896 5896 5897 5898 5899 5900 5900 5899 5900 5901 5901 5902 5903 5903 5904 5905 5906 5906 5907 5908 5908 5909 5910 5910 5911 5911 5911 5912 5913 5913 5914 5915 5916 5919 5921 5925 5927 5925 5925 5924 5917 5910 5911 5913 5914 5914 5913 5911 5909 5908 5906 5905 5905 5906 5906 5905 5903 5902 5901 5900 5900 5900 5900 5899 5899 5897 5896
5893 5892 5892 5891 5891 5891 5890 5890 5890 5890 5891 5891 5891 5891 5892 5892 5892 5893 5893 5893 5893 5894 5894 5895 5896 5897 5898 5898 5897 5899 5900 5900 5901 5901 5902 5903 5904 5905 5906 5907 5907 5907 5908 5909 5910 5910 5910 5911 5912 5912 5913 5914 5915 5916 5919 5923 5926 5926 5926 5925 5923 5918 5910 5909 5911 5910 5912 5914 5912 5911 5908 5904 5905 5906 5907 5907 5905 5903 5902 5901 5901 5901 5901 5901 5900 5899 5899 5898
5890 5889 5889 5888 5888 5888 5888 5888 5887 5888 5889 5889 5889 5889 5889 5890 5890 5890 5891 5891 5891 5892 5893 5893 5894 5894 5895 5897 5897 5898 5898 5899 5900 5900 5901 5902 5903 5904 5904 5905 5906 5907 5907 5908 5909 5909 5910 5910 5911 5912 5913 5913 5916 5918 5920 5923 5926 5926 5926 5926 5924 5919 5910 5907 5910 5909 5912 5914 5912 5911 5907 5905 5907 5907 5907 5907 5904 5903 5902 5902 5902 5902 5902 5901 5900 5899 5898 5898
5887 5886 5886 5885 5885 5885 5885 5885 5885 5885 5886 5886 5886 5886 5887 5887 5888 5888 5889 5889 5889 5890 5891 5891 5892 5892 5894 5895 5895 5896 5897 5897 5898 5899 5900 5901 5902 5902 5903 5904 5905 5906 5906 5907 5909 5909 5910 5910 5910 5912 5913 5914 5917 5919 5921 5924 5926 5925 5925 5925 5922 5919 5912 5910 5911 5910 5912 5914 5911 5910 5908 5907 5907 5906 5907 5908 5905 5904 5904 5903 5903 5903 5903 5903 5901 5900 5899 5899
5884 5883 5883 5882 5882 5882 5882 5882 5882 5882 5884 5884 5884 5884 5885 5885 5885 5886 5886 5887 5887 5888 5889 5889 5890 5891 5892 5893 5893 5895 5896 5895 5896 5897 5898 5899 5900 5901 5902 5903 5904 5905 5906 5907 5908 5908 5909 5909 5911 5911 5912 5915 5917 5919 5923 5924 5924 5923 5924 5925 5921 5917 5914 5913 5913 5911 5911 5912 5910 5909 5908 5906 5905 5904 5904 5907 5907 5907 5906 5905 5904 5904 5904 5904 5903 5901 5900 5900
5880 5880 5880 5879 5879 5879 5879 5879 5879 5880 5881 5882 5881 5881 5882 5882 5883 5884 5884 5885 5885 5886 5887 5887 5888 5889 5890 5891 5892 5893 5893 5894 5895 5896 5897 5898 5899 5900 5901 5902 5903 5904 5905 5907 5907 5907 5908 5909 5911 5913 5914 5915 5916 5920 5923 5921 5920 5921 5923 5925 5921 5918 5916 5914 5913 5912 5910 5911 5910 5909 5908 5906 5904 5902 5902 5903 5907 5908 5907 5907 5906 5906 5905 5905 5904 5903 5902 5902
5876 5876 5876 5876 5876 5876 5877 5877 5877 5877 5878 5879 5879 5879 5879 5880 5881 5881 5882 5883 5883 5884 5885 5886 5886 5887 5888 5889 5890 5890 5891 5892 5894 5894 5895 5897 5898 5898 5899 5901 5902 5903 5904 5906 5906 5907 5908 5910 5911 5912 5913 5914 5916 5920 5920 5917 5918 5920 5922 5923 5920 5919 5918 5913 5913 5912 5911 5912 5911 5909 5909 5908 5906 5905 5905 5904 5906 5907 5908 5907 5906 5906 5906 5905 5905 5904 5904 5903
5873 5873 5873 5873 5873 5873 5874 5874 5874 5875 5876 5877 5877 5876 5877 5878 5878 5879 5880 5880 5881 5882 5883 5884 5884 5885 5886 5887 5887 5888 5889 5890 5892 5892 5894 5895 5896 5897 5898 5900 5901 5902 5903 5904 5906 5907 5908 5912 5914 5913 5913 5913 5915 5918 5917 5917 5918 5920 5921 5921 5920 5919 5916 5913 5914 5913 5912 5912 5911 5909 5909 5908 5906 5906 5907 5906 5907 5907 5908 5908 5907 5907 5907 5906 5906 5906 5905 5904
5869 5869 5870 5870 5870 5871 5871 5871 5872 5873 5873 5874 5874 5874 5875 5875 5876 5877 5877 5878 5879 5880 5881 5882 5882 5883 5884 5885 5886 5887 5887 5888 5889 5890 5892 5893 5894 5895 5897 5898 5900 5901 5903 5904 5906 5907 5908 5911 5915 5916 5915 5914 5913 5914 5916 5917 5919 5921 5923 5922 5920 5917 5913 5913 5914 5913 5912 5911 5910 5910 5909 5908 5907 5906 5906 5906 5907 5908 5908 5909 5908 5908 5907 5907 5907 5906 5906 5906
5865 5866 5866 5867 5867 5868 5868 5869 5869 5870 5871 5871 5871 5872 5872 5873 5874 5875 5875 5876 5876 5877 5879 5879 5880 5881 5882 5883 5884 5884 5885 5886 5888 5888 5890 5891 5892 5894 5896 5897 5899 5900 5902 5905 5906 5907 5907 5909 5912 5913 5913 5913 5913 5913 5915 5917 5918 5921 5920 5919 5918 5913 5910 5913 5913 5911 5911 5909 5908 5909 5909 5908 5908 5907 5907 5907 5908 5908 5909 5909 5909 5908 5908 5907 5907 5907 5907 5906
5862 5862 5863 5863 5864 5865 5865 5866 5867 5868 5868 5869 5869 5870 5870 5871 5872 5873 5874 5874 5874 5876 5876 5877 5879 5879 5880 5881 5882 5883 5883 5884 5886 5886 5888 5889 5890 5892 5894 5895 5898 5899 5900 5903 5905 5906 5906 5907 5910 5911 5910 5911 5912 5913 5915 5916 5918 5920 5918 5918 5919 5913 5908 5910 5911 5910 5910 5908 5908 5909 5907 5907 5908 5908 5907 5908 5909 5909 5909 5909 5909 5908 5908 5908 5907 5907 5907 5907
5859 5860 5860 5860 5861 5862 5863 5864 5865 5865 5866 5866 5867 5867 5868 5869 5870 5871 5872 5871 5872 5874 5874 5875 5877 5877 5878 5879 5880 5881 5881 5882 5884 5885 5886 5888 5888 5890 5892 5893 5895 5898 5898 5900 5903 5905 5905 5906 5909 5909 5909 5909 5911 5914 5915 5915 5917 5919 5918 5919 5920 5914 5909 5910 5911 5909 5908 5907 5908 5907 5906 5906 5907 5908 5908 5909 5909 5909 5909 5909 5909 5908 5908 5908 5907 5907 5907 5907
5856 5857 5857 5858 5859 5859 5860 5861 5862 5863 5864 5864 5865 5865 5866 5867 5868 5869 5870 5870 5871 5872 5873 5874 5875 5875 5876 5877 5878 5879 5879 5881 5883 5883 5884 5886 5887 5889 5891 5892 5894 5896 5897 5898 5901 5904 5906 5907 5907 5907 5908 5908 5910 5913 5915 5917 5918 5918 5918 5917 5917 5914 5910 5909 5909 5907 5906 5907 5907 5906 5906 5906 5907 5908 5908 5909 5909 5908 5908 5908 5908 5907 5907 5908 5908 5907 5907 5907
5854 5854 5855 5855 5856 5857 5858 5859 5860 5861 5861 5862 5863 5863 5864 5865 5866 5867 5868 5868 5869 5870 5871 5872 5872 5873 5874 5875 5876 5877 5879 5881 5881 5881 5882 5883 5885 5887 5888 5890 5892 5893 5895 5897 5899 5901 5903 5904 5904 5905 5907 5908 5911 5914 5914 5915 5916 5916 5916 5915 5916 5914 5909 5906 5907 5907 5907 5907 5905 5904 5905 5906 5908 5908 5907 5908 5907 5906 5907 5907 5906 5905 5905 5907 5907 5907 5907 5906
5851 5852 5852 5853 5854 5855 5856 5857 5858 5858 5859 5860 5861 5861 5862 5863 5864 5865 5866 5866 5868 5868 5869 5870 5870 5871 5873 5873 5875 5876 5877 5879 5878 5879 5881 5882 5883 5885 5886 5887 5890 5891 5893 5895 5898 5899 5900 5901 5901 5902 5904 5907 5909 5911 5911 5911 5911 5912 5913 5914 5915 5912 5907 5905 5905 5906 5906 5906 5904 5903 5904 5906 5906 5904 5905 5906 5905 5903 5904 5906 5905 5904 5903 5905 5906 5907 5907 5906
5849 5849 5850 5850 5851 5852 5854 5855 5856 5856 5857 5858 5859 5860 5861 5861 5863 5864 5865 5866 5868 5868 5867 5867 5868 5870 5871 5872 5873 5874 5875 5876 5876 5878 5880 5881 5882 5883 5884 5886 5888 5890 5892 5895 5897 5898 5899 5900 5900 5900 5901 5903 5905 5907 5909 5909 5909 5909 5910 5913 5913 5908 5906 5906 5905 5905 5905 5904 5903 5902 5903 5905 5903 5901 5903 5905 5904 5903 5903 5903 5904 5904 5903 5903 5905 5906 5906 5906
5847 5847 5848 5848 5849 5850 5852 5853 5854 5855 5855 5856 5857 5858 5859 5860 5861 5862 5864 5866 5868 5867 5866 5865 5867 5869 5869 5870 5871 5872 5873 5874 5874 5877 5878 5878 5880 5881 5883 5885 5886 5889 5893 5895 5897 5899 5899 5899 5900 5900 5900 5901 5902 5905 5908 5910 5910 5909 5909 5911 5911 5907 5906 5906 5906 5905 5905 5905 5904 5903 5902 5902 5902 5900 5903 5905 5904 5904 5905 5904 5904 5903 5902 5903 5904 5905 5905 5905
5844 5845 5845 5846 5847 5849 5850 5851 5852 5853 5853 5854 5855 5856 5857 5858 5860 5861 5863 5866 5867 5866 5865 5865 5866 5867 5868 5869 5870 5870 5872 5873 5872 5874 5876 5876 5877 5879 5880 5883 5885 5888 5892 5894 5896 5899 5900 5900 5899 5900 5901 5900 5900 5902 5905 5907 5908 5908 5908 5910 5910 5907 5906 5905 5905 5906 5906 5905 5904 5902 5900 5901 5901 5899 5901 5904 5903 5903 5904 5904 5903 5902 5902 5903 5903 5904 5904 5904
5842 5843 5844 5844 5845 5847 5848 5849 5850 5851 5852 5852 5853 5854 5856 5857 5858 5859 5861 5864 5865 5864 5864 5864 5865 5866 5867 5868 5869 5869 5871 5873 5871 5872 5874 5874 5875 5877 5878 5880 5883 5886 5889 5891 5894 5897 5900 5901 5901 5900 5901 5900 5900 5901 5902 5903 5906 5904 5904 5907 5908 5906 5905 5904 5905 5906 5906 5904 5901 5899 5899 5901 5901 5899 5899 5902 5902 5902 5902 5902 5902 5902 5902 5903 5903 5903 5903 5903
5840 5841 5842 5843 5844 5845 5846 5847 5848 5849 5850 5851 5852 5853 5854 5856 5857 5857 5859 5861 5863 5865 5865 5864 5864 5865 5866 5867 5868 5870 5872 5873 5872 5871 5872 5873 5874 5876 5877 5879 5881 5884 5886 5889 5894 5898 5899 5901 5903 5900 5900 5902 5901 5901 5900 5901 5904 5903 5902 5905 5907 5905 5904 5905 5905 5905 5906 5905 5901 5899 5899 5900 5901 5902 5901 5901 5901 5902 5902 5901 5902 5902 5902 5903 5902 5903 5903 5902
5838 5839 5840 5841 5842 5843 5844 5845 5847 5848 5848 5849 5850 5851 5852 5854 5855 5856 5857 5859 5861 5864 5864 5865 5864 5865 5867 5867 5868 5870 5872 5872 5871 5870 5872 5873 5872 5874 5875 5878 5880 5882 5885 5888 5892 5897 5898 5901 5904 5901 5901 5904 5903 5901 5901 5900 5901 5902 5901 5904 5905 5905 5906 5906 5906 5905 5906 5905 5900 5898 5899 5899 5899 5900 5901 5901 5901 5901 5901 5901 5901 5902 5902 5902 5902 5902 5903 5901
5835 5836 5837 5839 5840 5841 5842 5844 5845 5846 5847 5848 5849 5850 5851 5852 5852 5854 5856 5857 5859 5861 5861 5864 5865 5866 5867 5869 5870 5870 5871 5872 5871 5871 5873 5873 5872 5873 5874 5877 5879 5880 5885 5888 5889 5892 5894 5897 5902 5902 5901 5903 5902 5900 5903 5903 5902 5901 5901 5902 5904 5905 5905 5904 5904 5904 5904 5903 5899 5897 5897 5896 5896 5897 5899 5900 5901 5901 5900 5900 5900 5901 5901 5902 5902 5901 5901 5900
5833 5834 5835 5837 5838 5839 5841 5842 5843 5844 5845 5846 5847 5849 5851 5851 5851 5853 5855 5856 5858 5858 5859 5861 5863 5865 5867 5869 5871 5872 5871 5871 5872 5871 5872 5873 5873 5873 5874 5877 5880 5880 5883 5886 5887 5891 5893 5894 5898 5900 5900 5902 5902 5899 5901 5905 5905 5902 5901 5902 5903 5904 5904 5903 5904 5903 5902 5901 5899 5896 5894 5893 5895 5896 5897 5898 5899 5900 5900 5899 5899 5899 5900 5901 5901 5899 5898 5898
5830 5832 5833 5835 5836 5838 5839 5841 5842 5843 5844 5845 5846 5847 5848 5850 5851 5852 5854 5855 5856 5856 5857 5859 5860 5862 5865 5867 5871 5873 5870 5870 5873 5873 5873 5873 5873 5873 5874 5876 5879 5881 5883 5884 5886 5891 5894 5895 5897 5898 5897 5899 5901 5899 5899 5902 5905 5904 5902 5902 5903 5904 5904 5904 5904 5903 5901 5899 5898 5895 5893 5893 5894 5894 5894 5894 5896 5898 5899 5897 5897 5898 5899 5899 5899 5897 5896 5895
5828 5830 5831 5833 5835 5836 5838 5839 5841 5842 5843 5844 5844 5845 5847 5848 5850 5852 5852 5853 5854 5854 5856 5857 5858 5860 5863 5866 5870 5873 5871 5869 5872 5874 5874 5873 5873 5874 5874 5874 5877 5882 5883 5884 5885 5888 5891 5895 5897 5895 5894 5895 5897 5898 5898 5899 5903 5905 5904 5903 5904 5903 5903 5903 5902 5901 5900 5898 5897 5894 5892 5893 5893 5892 5891 5891 5893 5894 5894 5893 5893 5896 5898 5897 5896 5895 5894 5894
5826 5827 5829 5831 5832 5834 5836 5837 5839 5840 5841 5842 5843 5845 5846 5847 5848 5850 5851 5852 5853 5853 5854 5855 5857 5858 5860 5864 5869 5872 5871 5869 5870 5872 5874 5874 5874 5875 5874 5874 5876 5880 5882 5883 5884 5886 5888 5891 5894 5895 5893 5893 5894 5896 5896 5896 5898 5901 5902 5901 5902 5902 5902 5902 5900 5900 5898 5896 5894 5892 5890 5891 5891 5891 5891 5890 5891 5891 5890 5890 5890 5893 5895 5895 5894 5893 5892 5892
5823 5825 5827 5828 5830 5832 5833 5836 5838 5839 5840 5841 5842 5843 5844 5846 5847 5849 5850 5851 5852 5852 5853 5854 5855 5856 5857 5861 5867 5870 5869 5869 5869 5871 5874 5874 5874 5876 5875 5873 5874 5877 5879 5881 5884 5885 5886 5887 5890 5893 5894 5893 5892 5892 5893 5893 5894 5896 5897 5898 5898 5900 5901 5900 5898 5898 5896 5893 5892 5891 5890 5891 5891 5891 5891 5890 5889 5890 5890 5889 5889 5890 5892 5892 5892 5892 5890 5890
5821 5824 5825 5826 5827 5829 5832 5834 5836 5837 5838 5839 5840 5841 5843 5844 5844 5846 5849 5850 5850 5851 5853 5853 5854 5856 5856 5858 5865 5869 5868 5868 5868 5870 5873 5874 5875 5877 5875 5872 5873 5875 5878 5881 5883 5885 5886 5887 5888 5889 5891 5893 5891 5889 5890 5892 5892 5893 5894 5895 5896 5897 5898 5897 5896 5896 5894 5891 5890 5890 5890 5891 5890 5890 5890 5889 5888 5889 5889 5889 5890 5890 5891 5891 5891 5891 5890 5890
5820 5821 5822 5823 5824 5826 5829 5831 5832 5833 5834 5835 5837 5838 5839 5841 5841 5843 5846 5848 5849 5851 5852 5853 5854 5857 5858 5858 5863 5867 5867 5867 5868 5869 5871 5872 5874 5874 5872 5871 5873 5875 5877 5879 5882 5883 5885 5887 5888 5887 5889 5890 5888 5886 5887 5888 5889 5889 5890 5892 5894 5894 5894 5895 5894 5893 5892 5890 5889 5889 5889 5890 5889 5888 5888 5888 5888 5889 5889 5889 5889 5889 5890 5890 5890 5890 5890 5889
5818 5819 5819 5821 5822 5824 5826 5829 5831 5831 5831 5832 5834 5834 5836 5838 5840 5841 5842 5845 5847 5849 5851 5852 5854 5856 5858 5859 5862 5866 5866 5866 5867 5868 5869 5870 5872 5871 5868 5870 5872 5873 5874 5876 5879 5882 5884 5886 5886 5885 5886 5886 5882 5882 5884 5885 5886 5888 5888 5889 5891 5892 5893 5894 5893 5891 5889 5889 5887 5886 5887 5888 5888 5887 5887 5887 5887 5888 5888 5889 5888 5887 5888 5889 5889 5889 5888 5887
5815 5816 5817 5819 5820 5822 5824 5826 5827 5826 5826 5828 5830 5831 5834 5837 5839 5840 5841 5844 5846 5847 5848 5850 5852 5854 5855 5856 5860 5864 5867 5866 5866 5868 5868 5869 5873 5871 5867 5867 5869 5870 5871 5874 5877 5880 5882 5885 5886 5884 5883 5882 5879 5880 5882 5884 5885 5887 5887 5887 5888 5890 5891 5893 5892 5889 5888 5888 5886 5884 5885 5886 5885 5886 5886 5885 5885 5886 5886 5887 5887 5887 5886 5886 5886 5886 5886 5885
5812 5813 5814 5816 5817 5819 5819 5819 5820 5821 5822 5824 5826 5828 5831 5835 5837 5838 5839 5842 5844 5846 5847 5848 5849 5852 5853 5854 5856 5860 5863 5865 5865 5867 5867 5868 5871 5870 5865 5864 5866 5867 5870 5873 5875 5876 5878 5881 5882 5881 5880 5880 5879 5879 5881 5883 5884 5886 5886 5886 5887 5888 5890 5892 5892 5888 5887 5887 5886 5884 5883 5883 5882 5882 5884 5885 5885 5885 5885 5885 5885 5885 5885 5885 5884 5884 5884 5884
5810 5810 5812 5814 5816 5817 5817 5817 5818 5819 5821 5824 5825 5826 5828 5831 5835 5836 5837 5839 5842 5844 5846 5846 5847 5850 5852 5852 5853 5855 5857 5859 5860 5863 5865 5866 5867 5867 5865 5864 5864 5866 5869 5871 5872 5873 5875 5878 5878 5877 5878 5877 5877 5879 5881 5881 5883 5884 5885 5886 5887 5888 5889 5890 5890 5887 5886 5886 5886 5884 5882 5879 5879 5880 5883 5885 5885 5885 5884 5883 5883 5883 5883 5883 5882 5882 5882 5882
5807 5808 5810 5812 5813 5815 5815 5816 5817 5817 5820 5823 5823 5824 5826 5829 5833 5835 5835 5835 5838 5842 5844 5844 5845 5848 5850 5851 5852 5852 5852 5853 5855 5857 5860 5862 5863 5864 5865 5864 5865 5867 5868 5869 5871 5873 5875 5876 5875 5874 5875 5875 5875 5878 5879 5879 5881 5882 5883 5885 5887 5887 5887 5887 5887 5885 5884 5884 5884 5883 5880 5876 5877 5879 5881 5883 5884 5884 5884 5883 5882 5881 5881 5880 5880 5880 5880 5880
5805 5806 5808 5809 5810 5812 5813 5814 5814 5815 5818 5821 5822 5823 5826 5828 5829 5831 5832 5832 5834 5839 5841 5841 5841 5844 5846 5848 5849 5849 5850 5852 5854 5854 5855 5857 5859 5860 5861 5862 5865 5868 5867 5868 5871 5873 5873 5873 5872 5872 5874 5874 5874 5876 5877 5877 5879 5880 5882 5884 5886 5886 5886 5886 5885 5884 5882 5881 5881 5881 5878 5876 5876 5878 5880 5880 5881 5882 5882 5882 5881 5880 5879 5879 5878 5878 5878 5877
5802 5803 5805 5806 5808 5809 5810 5811 5811 5812 5815 5819 5820 5820 5824 5827 5826 5827 5830 5832 5833 5836 5838 5839 5840 5842 5843 5845 5845 5846 5848 5850 5851 5851 5852 5854 5855 5856 5858 5860 5864 5867 5866 5867 5871 5871 5869 5869 5870 5870 5873 5873 5872 5874 5875 5875 5875 5877 5879 5880 5883 5884 5883 5883 5883 5882 5881 5880 5879 5877 5876 5875 5876 5877 5878 5878 5878 5879 5879 5879 5879 5878 5877 5877 5876 5875 5875 5875